STARLINK-33563 (62284 NORAD) Tracking and Keplerian Element Data

This shows tracking and keplerian element data for the satellite.

Feedback or suggestion? Click here.




ElementValue
Catalog62284
NameSTARLINK-33563
Epoch Orbit1019
Epoch Day35.09988965
Epoch Year2025
RAAN310.7745
Inclination42.9998
Eccentricity0.0001246
Argument of Perigee285.7865
Mean Anonmoly74.2854
Mean Motion15.40696687
Decay Rate5.399E-05
L11 62284U 24237T 25035.09988965 .00005399 00000+0 13642-3 0 9993
L22 62284 42.9998 310.7745 0001246 285.7865 74.2854 15.40696687 10199



Live tracking and technical data element details for STARLINK-33563 (NORAD 62284). STARLINK-33563 can be tracked NOW for your location showing map with azimuth and elevation plus other details from your city location.







IsCatalogInMostPopularTable: catalog: 62284, numindb: 30
Update: records affected: 1



GetName: 62284 STARLINK-33563

Hit Count: updated at: Sat, 24 May 2025 15:36:49 GMT